EW6425 Weather Reports


Display with metric or nautical units.
time (UTC)temp
F
wind
direction
speed
MPH
gust
MPH
rain 1hr
in
rain 24hr
in
rain mn
in
humidity
%
barometer
mb
20260508141504 57 65 3.0 9.0 0.00 0.82 0.01 67 1001.5
20260508140003 56 94 4.0 8.0 0.00 0.82 0.01 68 1001.7
20260508134616 55 95 2.0 6.0 0.00 0.82 0.01 74 1001.9
20260508133051 54 95 1.0 4.0 0.00 0.82 0.01 79 1002.0
20260508131547 52 95 2.0 7.0 0.00 0.82 0.01 88 1002.1
20260508130043 51 96 2.0 7.0 0.00 0.82 0.01 93 1002.0
20260508124541 50 96 1.0 4.0 0.00 0.82 0.01 94 1001.9
20260508123038 50 96 0.0 3.0 0.00 0.82 0.01 95 1001.8
20260508121540 49 96 2.0 4.0 0.00 0.82 0.01 96 1001.9
20260508120033 48 96 3.0 6.0 0.00 0.82 0.01 96 1002.0
20260508114534 47 98 1.0 3.0 0.00 0.82 0.01 96 1002.2
20260508113039 46 98 0.0 3.0 0.00 0.82 0.01 96 1002.2
20260508111531 44 98 0.0 2.0 0.01 0.82 0.01 95 1002.2
20260508110030 44 98 2.0 3.0 0.01 0.82 0.01 96 1002.3
20260508104530 43 98 1.0 3.0 0.01 0.82 0.01 95 1002.5
20260508103035 42 98 0.0 0.0 0.01 0.82 0.01 95 1002.6
20260508101528 42 342 0.0 0.0 0.00 0.81 0.00 95 1002.3
20260508100029 42 342 0.0 0.0 0.00 0.81 0.00 95 1002.6
20260508094526 41 342 0.0 0.0 0.00 0.81 0.00 95 1002.4
20260508093024 41 342 0.0 0.0 0.00 0.81 0.00 95 1002.1
20260508091527 41 342 0.0 0.0 0.00 0.81 0.00 95 1001.8
20260508090025 41 342 0.0 0.0 0.00 0.81 0.00 95 1001.9
20260508084520 42 342 0.0 0.0 0.00 0.81 0.00 95 1002.1
20260508083017 43 342 0.0 3.0 0.00 0.81 0.00 95 1001.7
20260508081539 43 342 1.0 4.0 0.00 0.81 0.00 95 1001.5
20260508080015 43 342 2.0 8.0 0.00 0.81 0.00 95 1001.4
20260508074514 43 320 3.0 9.0 0.00 0.81 0.00 95 1001.4
20260508073010 44 333 4.0 10.0 0.00 0.81 0.00 95 1001.6
20260508071519 44 332 2.0 8.0 0.00 0.81 0.00 95 1001.8
20260508070007 44 333 3.0 9.0 0.00 0.81 0.00 95 1001.7
20260508064509 45 338 3.0 9.0 0.00 0.81 0.00 95 1001.9
20260508063119 46 339 2.0 8.0 0.00 0.81 0.00 95 1001.7
20260508061558 46 338 1.0 4.0 0.00 0.81 0.00 95 1001.7
20260508060105 47 338 3.0 8.0 0.00 0.81 0.00 95 1001.8
20260508054556 47 339 1.0 5.0 0.00 0.81 0.00 95 1001.7
20260508053057 47 339 3.0 6.0 0.00 0.81 0.00 95 1001.8
20260508051556 47 360 3.0 8.0 0.00 0.81 0.00 95 1001.8
20260508050054 47 360 1.0 5.0 0.00 0.81 0.00 95 1001.7
20260508044553 46 360 0.0 2.0 0.00 0.81 0.00 94 1001.6
20260508043052 46 360 0.0 4.0 0.00 0.81 0.00 95 1001.5
20260508041546 46 360 0.0 0.0 0.00 0.81 0.00 94 1001.8
20260508040051 47 360 1.0 3.0 0.00 0.81 0.00 94 1002.0
20260508034543 47 360 0.0 0.0 0.00 0.81 0.00 94 1001.8
20260508033039 48 360 2.0 3.0 0.00 0.81 0.00 94 1002.1
20260508031538 48 360 0.0 1.0 0.00 0.81 0.00 95 1002.1
20260508030037 48 360 1.0 3.0 0.00 0.81 0.00 95 1002.2
20260508024546 48 360 0.0 0.0 0.00 0.81 0.81 94 1002.4
20260508023035 48 360 0.0 0.0 0.00 0.81 0.81 94 1002.2
20260508021535 48 360 0.0 3.0 0.00 0.81 0.81 94 1002.5
20260508020034 48 360 3.0 8.0 0.00 0.81 0.81 94 1002.4
20260508014540 49 355 5.0 11.0 0.00 0.81 0.81 94 1002.6
20260508013028 50 307 4.0 8.0 0.00 0.81 0.81 94 1002.5
20260508011527 50 355 2.0 11.0 0.01 0.81 0.81 94 1002.3
20260508010033 51 355 6.0 11.0 0.01 0.81 0.81 94 1002.0
20260508004526 52 182 2.0 4.0 0.02 0.81 0.81 95 1002.1
20260508003023 52 182 0.0 2.0 0.02 0.81 0.81 94 1002.0
20260508001523 52 182 3.0 6.0 0.02 0.80 0.80 95 1002.1
20260508000023 52 160 0.0 2.0 0.02 0.80 0.80 95 1002.1
20260507234522 53 160 0.0 3.0 0.02 0.80 0.80 94 1002.1
20260507233035 53 160 3.0 5.0 0.01 0.79 0.79 94 1002.1
20260507231532 53 160 1.0 5.0 0.00 0.78 0.78 94 1002.0
20260507230021 53 160 0.0 3.0 0.00 0.78 0.78 94 1002.0
20260507224521 53 160 0.0 3.0 0.00 0.78 0.78 94 1001.8
20260507223020 53 160 0.0 0.0 0.00 0.78 0.78 94 1001.7
20260507221525 52 160 0.0 5.0 0.00 0.78 0.78 94 1001.6
20260507220021 53 160 2.0 6.0 0.00 0.78 0.78 94 1001.6
20260507214519 53 160 0.0 0.0 0.00 0.78 0.78 94 1001.8
20260507213018 53 160 0.0 5.0 0.00 0.78 0.78 94 1001.9
20260507211523 53 160 3.0 7.0 0.00 0.78 0.78 94 1001.9
20260507210119 53 190 1.0 4.0 0.00 0.78 0.78 94 1001.9
20260507204516 53 190 3.0 7.0 0.00 0.78 0.78 94 1001.9
20260507203015 53 176 3.0 9.0 0.02 0.78 0.78 94 1001.4
20260507201515 53 130 2.0 11.0 0.07 0.78 0.78 94 1001.0
20260507200012 53 138 1.0 7.0 0.13 0.78 0.78 94 1001.2
20260507194509 53 203 1.0 4.0 0.19 0.78 0.78 94 1001.9
20260507193007 53 203 1.0 3.0 0.21 0.76 0.76 94 1002.3
20260507191505 53 204 1.0 4.0 0.21 0.70 0.70 93 1002.7
20260507190004 54 205 2.0 5.0 0.20 0.64 0.64 93 1003.7
20260507184502 53 205 0.0 3.0 0.23 0.59 0.59 93 1003.8
20260507183002 53 205 0.0 6.0 0.33 0.54 0.54 93 1004.0
20260507181605 53 205 3.0 6.0 0.44 0.50 0.50 93 1004.2
20260507180100 53 213 4.0 12.0 0.41 0.43 0.43 92 1004.2
20260507174559 53 184 5.0 11.0 0.35 0.36 0.36 92 1004.7
20260507173103 54 218 6.0 12.0 0.20 0.21 0.21 91 1004.7
20260507171600 55 167 5.0 13.0 0.04 0.04 0.04 91 1004.2
20260507164600 56 169 6.0 20.0 0.01 0.01 0.01 89 1004.3
20260507163052 56 170 8.0 19.0 0.00 0.00 0.00 88 1004.5
20260507161549 56 189 9.0 17.0 0.00 0.00 0.00 87 1005.1
20260507160148 57 188 7.0 17.0 0.00 0.00 0.00 87 1005.4
20260507154551 57 173 10.0 17.0 0.00 0.00 0.00 87 1006.0
20260507153044 58 145 8.0 20.0 0.00 0.00 0.00 85 1006.0
20260507151542 58 201 7.0 30.0 0.00 0.00 0.00 85 1006.5
20260507150040 59 169 11.0 21.0 0.00 0.00 0.00 85 1006.8
20260507144538 59 161 12.0 20.0 0.00 0.00 0.00 85 1006.9
20260507143038 58 142 8.0 23.0 0.00 0.00 0.00 85 1007.0